User: anonymous   Login
Location: Banksville Park
(38.5557°N, 75.1182°W)
Time: 07:30:33
(UTC+00:00)
Language:

Resurs 01 Rocket - Orbit

View from above orbital plane
View from above orbital plane
View from above satellite
View from above satellite

Ground track
Ground track

The orbit data is extracted from the following two-line orbital elements,

1 23343U 94074B   20336.74188144  .00000094  00000-0  20664-4 0  9995
2 23343  97.9772  28.0604 0006341 343.0880 161.2211 14.76849351403108
Epoch (UTC): 01 December 2020 17:48:18
Eccentricity: 0.0006341
inclination: 97.9772°
perigee height: 635 km
apogee height: 644 km
right ascension of ascending node: 28.0604°
argument of perigee: 343.0880°
revolutions per day: 14.76849351
mean anomaly at epoch: 161.2211°
orbit number at epoch: 40310

The dashed part of the orbit path shows where the satellite is in the earth's shadow,  

DLR